Weather in Tas-Yuryakh

Russia / Sakha (Yakutia) Republic     61°47′21″N   113°00′57″E
temp.,
°C
wind,
m/s
gust,
m/s
humid.,
%
clouds,
%
prec.,
mm/h
press.,
hPa
HPBL,
m
11 may, tue
tue1100:00+2nne4994100 0.2 1019566
03:000nne388388 0.3 1020472
06:00−1nne38865 0.0 1019478
09:00+2nne4564100 0.1 10191298
12:00+3nne4558100 0.1 10191617
15:00+4nne4557100 0.3 10191370
18:00+4ne4663100 0.5 10181225
21:00+2nne466785 0.8 1019768
12 may, wed
wed1200:00−1nne27845 0.0 1020222
03:00−2nne38885 0.0 1020305
06:00−2nne378494 0.0 1019386
09:00+1nne3466100 0.0 10191048
12:00+3nne3453100 0.1 10181400
15:00+6n3342100 0.1 10171770
18:00+7n334090 0.0 10171796
21:00+4n255711 0.0 1018138
13 may, thu
thu1300:000n22685 0.0 101925
03:00−1n11724 0.0 101910
06:000nnw11680 0.0 101925
09:00+5nnw22464 0.0 1018834
12:00+8nw23360 0.0 10171408
15:00+10wnw23290 0.0 10151806
18:00+10wnw23300 0.0 10141861
21:00+7wsw11440 0.0 101510
14 may, fri
fri1400:00+4s22521 0.0 101514
03:00+2ssw22609 0.0 101536
06:00+2ssw256356 0.0 101497
09:00+8sw354299 0.0 1013447
12:00+12sw463367 0.0 10121990
15:00+13wsw452927 0.0 10102353
18:00+14sw462897 0.0 10092582
21:00+11ssw264487 0.0 1008112
15 may, sat
sat1500:00+7s2753100 0.0 1008136
03:00+5s375989 0.0 1007132
06:00+5s3125990 0.0 1005286
09:00+10s51251100 0.0 1002594
12:00+15s7133194 0.0 9982858
15:00+7sw71280100 0.4 10001104
18:00+8sw6124827 0.4 9992117
21:00+6wsw5106434 0.6 10011363